Regional Weather Roundup
Issued by NWS Green Bay, WI

Home | Current Version | Previous Version | Text Only | Print | Product List | Glossary On
Versions: 1 2 3 4 5 6 7 8 9 10 11 12 13 14 15 16 17 18 19 20 21 22 23 24 25 26 27 28 29 30 31 32 33 34 35 36 37 38 39 40 41 42 43 44 45 46 47 48 49 50
000
ASUS43 KGRB 290859
RWRGRB

NORTH-CENTRAL AND NORTHEAST WISCONSIN REGIONAL WEATHER ROUNDUP
NATIONAL WEATHER SERVICE GREEN BAY WI
400 AM CDT SUN MAR 29 2015

WIZ005-009-010>012-018-019-291000-
NORTH CENTRAL WISCONSIN

CITY           SKY/WX    TMP DP  RH WIND       PRES   REMARKS
IRONWOOD       CLOUDY    34  16  47 SW14G21   29.77F
MANITOWISH WTR NOT AVBL
ARBOR VITAE    NOT AVBL
EAGLE RIVER    NOT AVBL
LAND O LAKES   NOT AVBL
RHINELANDER    CLOUDY    30  13  49 S14       29.89F
PHILLIPS       MOCLDY    31  14  50 S13G18    29.84F
ANTIGO         NOT AVBL
TOMAHAWK       NOT AVBL
MERRILL        NOT AVBL
$$

WIZ013-073-291000-
NORTHEAST WISCONSIN

CITY           SKY/WX    TMP DP  RH WIND       PRES   REMARKS
IRON MOUNTAIN  CLOUDY    29  14  53 S12       29.92F
MARINETTE      MOCLDY    28  19  69 SW10      30.02F
$$

WIZ017-030-035>037-045-291000-
CENTRAL WISCONSIN

CITY           SKY/WX    TMP DP  RH WIND       PRES   REMARKS
MEDFORD        NOT AVBL
WAUSAU         CLOUDY    31  14  49 S13       29.93F
MOSINEE        NOT AVBL
MARSHFIELD     CLOUDY    32  15  49 S13       29.93F
WISC RAPIDS    CLOUDY    32  12  43 S12G20    29.99F
STEVENS POINT  NOT AVBL
WAUPACA        NOT AVBL
SHAWANO        NOT AVBL
CLINTONVILLE   CLOUDY    32  18  55 S10       30.02F
$$

WIZ038-039-048-051-291000-
FOX VALLEY

CITY           SKY/WX    TMP DP  RH WIND       PRES   REMARKS
NWS GREEN BAY  MOCLDY    29  20  69 S10       30.04F
APPLETON       NOT AVBL
OSHKOSH        MOCLDY    29  17  61 S16       30.04F
FOND DU LAC    MOCLDY    31  15  52 S16       30.05F
$$

WIZ022-050-052-291000-
EAST CENTRAL WISCONSIN

CITY           SKY/WX    TMP DP  RH WIND       PRES   REMARKS
STURGEON BAY   MOCLDY    28  16  59 S13G18    30.06F
MANITOWOC      NOT AVBL
SHEBOYGAN      MOCLDY    28  15  58 S12       30.09F
$$

LMZ563-521-522-541>543-291000-
LAKESHORE

STATION/POSITION TIME  TEMP    WIND        PRES    VSBY  WAVE
                       AIR SEA DIR/SP/G                  HT/PER
                 (UTC) (F)     (DEG/KT/KT) (MB)    (MI)  (FT/S)
SHEBOYGAN LKSHOR 0800   31     190/ 18/ 20 1021.0F
NORTHPORT PIER   0800   30     180/  6/ 19 1017.9F
SISTER BAY LKSHO 0800   30     190/ 16/ 20   N/A
CHAMBERS ISLAND  0800   28     170/  8/ 15 1017.3F
$$



USA.gov is the U.S. government's official web portal to all federal, state and local government web resources and services.